Location: Unspecified
(0.0000°N, 0.0000°E)
Time: 19:21:35
(UTC+00:00)

Vanguard 2 Rocket - All Passes

Search period start: 21 October 2017 00:00
Search period end: 31 October 2017 00:00
Orbit: 555 x 3327 km, 32.9° (Epoch: 20 October)

Date Brightness Start Highest point End Pass type
(mag) Time Alt. Az. Time Alt. Az. Time Alt. Az.
21 Oct - 01:22:07 10° SSW 01:25:34 11° SSW 01:28:41 10° S visible
21 Oct - 05:58:04 10° SSW 06:02:28 20° SSE 06:05:51 10° ESE daylight
21 Oct - 08:11:38 10° WSW 08:15:47 42° NW 08:19:31 10° NE daylight
21 Oct - 15:02:25 10° N 15:06:18 12° NNE 15:10:47 10° NE daylight
21 Oct - 17:11:16 10° NNW 17:24:05 42° NE 17:42:05 10° ESE daylight
21 Oct - 19:24:59 10° NW 19:42:18 85° SW 20:02:46 10° SE visible
21 Oct - 21:44:07 10° W 22:02:02 40° SSW 22:18:19 10° SSE visible
22 Oct - 00:13:18 10° SW 00:23:05 16° SSW 00:31:11 10° SSE visible
22 Oct - 04:58:32 10° SSW 05:02:29 15° SSE 05:05:37 10° SE visible
22 Oct - 07:11:37 10° SW 07:16:52 82° SE 07:20:50 10° ENE daylight
22 Oct - 16:12:37 10° NNW 16:22:48 29° NE 16:37:18 10° E daylight
22 Oct - 18:24:49 10° NW 18:40:14 76° NE 19:00:52 10° ESE visible
22 Oct - 20:41:27 10° WNW 20:59:28 52° SW 21:18:02 10° SE visible
22 Oct - 23:06:26 10° WSW 23:20:22 22° SSW 23:32:06 10° SSE visible
23 Oct - 01:40:58 10° SSW 01:42:24 10° S 01:43:47 10° S visible
23 Oct - 03:58:35 10° S 04:02:00 12° SSE 04:04:51 10° SE visible
23 Oct - 06:11:38 10° SW 06:17:41 42° SSE 06:21:48 10° ENE daylight
23 Oct - 08:27:41 10° WNW 08:30:28 17° NW 08:33:04 10° N daylight
23 Oct - 15:14:51 10° N 15:21:48 18° NE 15:31:03 10° ENE daylight
23 Oct - 17:25:18 10° NW 17:38:36 58° NE 17:58:03 10° ESE daylight
23 Oct - 19:39:57 10° WNW 19:57:00 66° SW 20:17:07 10° SE visible
23 Oct - 22:01:15 10° W 22:17:32 30° SSW 22:32:21 10° SSE visible
24 Oct - 00:32:34 10° SW 00:39:50 13° SSW 00:46:03 10° SSE visible
24 Oct - 02:57:38 10° S 03:00:57 11° S 03:03:50 10° SSE visible
24 Oct - 05:11:30 10° SSW 05:18:02 27° SSE 05:22:27 10° E visible
24 Oct - 07:26:40 10° WSW 07:31:30 38° NW 07:35:15 10° NNE daylight
24 Oct - 16:26:24 10° NNW 16:37:27 41° NE 16:54:15 10° ESE daylight
24 Oct - 18:39:24 10° WNW 18:54:46 83° SW 19:15:34 10° SE visible
24 Oct - 20:57:41 10° W 21:14:41 39° SSW 21:32:04 10° SSE visible
24 Oct - 23:25:22 10° SW 23:36:51 18° SSW 23:46:37 10° SSE visible
25 Oct - 01:54:51 10° SSW 01:59:15 12° S 02:03:03 10° SSE visible
25 Oct - 04:11:03 10° SSW 04:17:53 21° SSE 04:22:39 10° ESE visible
25 Oct - 06:26:01 10° SW 06:32:33 85° NW 06:36:50 10° NE daylight
25 Oct - 15:28:09 10° NNW 15:36:43 27° NE 15:49:20 10° E daylight
25 Oct - 17:39:36 10° NW 17:53:01 78° NE 18:13:15 10° ESE visible
25 Oct - 19:55:30 10° WNW 20:11:59 50° SSW 20:31:15 10° SE visible
25 Oct - 22:19:18 10° WSW 22:33:39 23° SSW 22:46:38 10° SSE visible
26 Oct - 00:50:05 10° SSW 00:56:51 13° S 01:02:36 10° SSE visible
26 Oct - 03:10:03 10° SSW 03:17:11 18° SSE 03:22:23 10° SE visible
26 Oct - 05:25:21 10° SW 05:33:16 54° SSE 05:38:03 10° ENE daylight
26 Oct - 07:42:55 10° WNW 07:46:01 16° NW 07:48:41 10° N daylight
26 Oct - 14:30:59 10° N 14:36:15 15° NE 14:43:01 10° ENE daylight
26 Oct - 16:40:26 10° NW 16:51:51 58° NE 17:10:11 10° ESE daylight
26 Oct - 18:54:27 10° WNW 19:09:34 63° SSW 19:29:51 10° SE visible
26 Oct - 21:14:47 10° WSW 21:30:26 29° SSW 21:46:10 10° SSE visible
26 Oct - 23:44:04 10° SW 23:53:50 16° S 00:02:08 10° SSE visible
27 Oct - 02:08:16 10° SSW 02:15:51 16° S 02:21:39 10° SE visible
27 Oct - 04:24:30 10° SW 04:33:26 36° SSE 04:38:53 10° E visible
27 Oct - 06:41:11 10° WSW 06:47:05 37° NW 06:51:09 10° NNE daylight
27 Oct - 15:41:50 10° NNW 15:51:14 39° NE 16:06:16 10° ESE daylight
27 Oct - 17:54:15 10° WNW 18:07:36 80° SW 18:27:53 10° SE visible
27 Oct - 20:11:47 10° W 20:27:25 37° SSW 20:45:17 10° SE visible
27 Oct - 22:37:57 10° SW 22:50:23 19° SSW 23:01:31 10° SSE visible
28 Oct - 01:05:21 10° SSW 01:13:47 15° S 01:20:30 10° SE visible
28 Oct - 03:23:20 10° SSW 03:33:03 28° SSE 03:39:16 10° ESE visible
28 Oct - 05:39:52 10° WSW 05:48:03 77° NW 05:52:56 10° NE daylight
28 Oct - 14:43:56 10° N 14:51:01 24° NE 15:01:28 10° E daylight
28 Oct - 16:54:46 10° NW 17:06:15 80° NE 17:25:19 10° ESE daylight
28 Oct - 19:10:04 10° W 19:24:44 47° SSW 19:43:56 10° SE visible
28 Oct - 21:32:43 10° WSW 21:46:49 23° SSW 22:00:38 10° SSE visible
29 Oct - 00:01:13 10° SSW 00:10:59 16° S 00:19:05 10° SSE visible
29 Oct - 02:21:43 10° SSW 02:32:04 23° SSE 02:39:06 10° ESE visible
29 Oct - 04:38:33 10° SW 04:48:36 65° SSE 04:54:16 10° ENE visible
29 Oct - 06:57:30 10° W 07:01:29 18° NW 07:04:37 10° N daylight
29 Oct - 13:47:36 10° NNE 13:50:59 13° NE 13:55:02 10° ENE daylight
29 Oct - 15:55:52 10° NW 16:05:33 58° NE 16:22:09 10° ESE daylight
29 Oct - 18:09:22 10° WNW 18:22:31 59° SSW 18:42:08 10° SE visible
29 Oct - 20:28:52 10° WSW 20:43:24 28° SSW 20:59:27 10° SSE visible
29 Oct - 22:56:11 10° SW 23:07:34 17° S 23:17:33 10° SSE visible
30 Oct - 01:19:31 10° SSW 01:30:23 20° SSE 01:38:19 10° ESE visible
30 Oct - 03:37:04 10° SW 03:48:34 45° SSE 03:55:10 10° E visible
30 Oct - 05:55:08 10° WSW 06:02:31 38° NW 06:07:11 10° NNE daylight
30 Oct - 14:57:32 10° NNW 15:05:25 37° NE 15:18:23 10° ESE daylight
30 Oct - 17:09:29 10° WNW 17:20:55 76° SW 17:39:54 10° SE daylight
30 Oct - 19:26:23 10° W 19:40:22 35° SSW 19:57:58 10° SE visible
30 Oct - 21:51:05 10° SW 22:03:46 19° S 22:15:53 10° SSE visible
